Flag for Morocco Weather past 2 weeks in Casablanca, Morocco

Now
77 °F

Sunny.


Feels Like: 79 °F
Forecast: 65 / 77 °F
Wind: 9 mph from Northeast

Location: Casablanca Airport

Current Time: Aug 20, 2014 at 6:08:45 PM

Latest Report: Aug 20, 2014 at 5:00 PM


Visibility: 10 mi

Pressure: 30.01 "Hg

Humidity: 69%

Dew point: 66 °F

Location of CasablancaLocation

Historic Weather in Casablanca — Graph

°F

Casablanca temperature yesterday

Maximum temperature yesterday: 77 °F (at 2:00 PM)
Minimum temperature yesterday: 70 °F (at 7:00 AM)
Average temperature yesterday: 73 °F

Past Weeks' High & Low Weather Summary

 TemperatureHumidityPressure
High81 °F (Aug 11, 2:00 PM)94% (Aug 6, 2:00 AM)31.13 "Hg (Aug 6, 2:00 AM)
Low68 °F (Aug 7, 7:00 AM)61% (Aug 14, 1:00 PM)29.77 "Hg (Aug 17, 1:00 PM)
Average75 °F81%29.96 "Hg
* Reported Aug 5 4:00 PM — Aug 20 4:00 PM, Casablanca, Weather by CustomWeather, © 2014

Note: Actual official high and low records may vary slightly from our data, if they occured in-between our weather recording intervals... More about our weather records

Advertising

Casablanca weather history for previous 24 hours

 ConditionsComfort  
Time TempWeatherWind HumidityBarometerVisibility
4:00 PM
Aug 20
79 °FSunny.9 mph65%30.01 "Hg10 mi
3:00 PM77 °FSunny.9 mph69%30.04 "Hg10 mi
2:00 PM77 °FSunny.8 mph69%30.04 "Hg10 mi
1:00 PM75 °FSunny.8 mph74%30.04 "Hg10 mi
12:00 PM75 °FSunny.7 mph74%30.04 "Hg10 mi
11:00 AM73 °FSunny.8 mph78%30.04 "Hg10 mi
10:00 AM72 °FSunny.7 mph83%30.01 "Hg10 mi
9:00 AM70 °FPassing clouds.5 mph83%30.01 "Hg4 mi
8:00 AM68 °FMild.5 mph88%30.01 "Hg4 mi
7:00 AM68 °FPassing clouds.5 mph88%30.01 "Hg4 mi
2:00 AM70 °FClear.5 mph83%30.07 "Hg10 mi
1:00 AM70 °FClear.5 mph83%30.07 "Hg10 mi
12:00 AM70 °FPassing clouds.5 mph83%30.07 "HgN/A
11:00 PM
Aug 19
70 °FPassing clouds.7 mph83%30.07 "HgN/A
10:00 PM70 °FPassing clouds.5 mph83%30.04 "HgN/A
9:00 PM70 °FPassing clouds.6 mph83%30.04 "HgN/A
8:00 PM72 °FPassing clouds.7 mph78%30.01 "HgN/A
7:00 PM73 °FPassing clouds.8 mph74%30.01 "HgN/A
6:00 PM73 °FPassing clouds.8 mph74%30.01 "HgN/A
Weather by CustomWeather, © 2014

See weather overviewHow to use our weather pages